#timestamp,LO_Frequency,Hit,StdDev 
1502715615.6,286047001.9,N,1.1
1502715635.4,286047001.5,N,1.0
1502715655.3,286047002.6,N,1.0
1502715675.1,286047002.6,N,1.0
1502715695.9,286047004.4,Y,0.0
1502715715.7,286047002.4,P,0.4
1502715735.5,286047001.6,P,0.4
1502715755.4,286047002.6,P,0.5
1502715775.2,286047002.0,Y,0.0
1502715795.0,286047000.7,P,0.7
1502715796.0,286047000.7,N,0.6
1502715815.8,286047000.6,N,0.6
1502715835.6,286047000.6,N,0.6
1502715855.5,286047002.4,Y,0.0
1502715875.3,286047002.0,P,0.5
1502715895.2,286046999.7,N,0.9
1502715915.9,286046999.7,N,1.0
1502715935.7,286047000.6,N,0.9
1502715955.6,286046999.8,N,0.8
1502715975.4,286047000.5,N,0.8
1502715995.3,286047000.3,N,0.7
1502716015.1,286047000.6,N,0.7
1502716016.0,286047000.6,N,0.7
1502716035.8,286047002.6,Y,0.0
1502716055.7,286046999.7,P,0.4
1502716075.5,286047002.3,P,1.1
1502716095.4,286047002.7,N,1.2
1502716115.2,286046999.7,N,1.3
1502716135.0,286046999.8,N,1.3
1502716135.9,286046999.8,N,1.2
1502716155.8,286047002.6,N,1.3
1502716175.6,286046999.7,N,1.3
1502716195.5,286047002.7,N,1.4
1502716215.3,286047002.2,N,1.3
1502716235.1,286047001.9,N,1.3
1502716255.9,286047001.8,N,1.3
1502716275.7,286047001.6,N,1.2
1502716295.5,286047002.1,N,1.2
1502716315.4,286047003.9,Y,0.0
1502716335.2,286046999.8,P,0.7
1502716355.1,286047002.8,P,1.2
1502716356.0,286047002.8,N,1.2
1502716375.8,286047002.5,N,1.2
1502716395.6,286047002.7,N,1.1
1502716415.5,286046999.9,N,1.3
1502716435.3,286046999.7,N,1.3
1502716455.2,286047000.1,N,1.3
1502716475.9,286047002.3,N,1.3
1502716495.7,286046999.8,N,1.3
1502716515.6,286047002.5,N,1.3
1502716535.4,286047002.5,N,1.3
1502716555.3,286047002.0,N,1.3
1502716575.1,286047001.8,N,1.2
1502716576.0,286047001.8,N,1.2
1502716595.8,286047002.1,N,1.2
1502716615.7,286047001.5,N,1.1
1502716635.5,286047001.7,N,1.1
1502716655.4,286047001.8,N,1.1
1502716675.2,286047003.9,Y,0.0
1502716695.0,286046999.7,P,0.9
1502716695.9,286046999.7,N,0.9
1502716715.8,286047000.1,N,0.8
1502716735.6,286046999.8,N,0.7
1502716755.5,286047002.3,Y,0.0
1502716775.3,286047002.2,P,1.0
1502716795.1,286047000.1,N,1.0
1502716815.9,286047000.4,N,0.9
1502716835.7,286047000.6,N,0.8
1502716855.6,286046999.9,N,0.8
1502716875.4,286047000.3,N,0.7
1502716895.2,286047000.7,N,0.7
1502716915.1,286047000.3,N,0.6
1502716916.0,286047000.3,N,0.6
1502716935.8,286047000.7,N,0.6
1502716955.6,286047000.9,N,0.6
1502716975.5,286047002.6,Y,0.0
1502716995.3,286047000.9,P,0.2
1502717015.2,286047001.0,P,0.2
1502717035.0,286047001.1,P,0.2
1502717035.9,286047001.1,Y,0.0
1502717055.8,286046998.2,P,1.3
1502717075.6,286046998.5,N,1.2
1502717095.4,286046998.7,N,1.1
1502717115.3,286046998.8,N,1.0
1502717135.1,286046998.2,N,0.9
1502717155.9,286046998.1,N,0.9
1502717175.7,286046998.5,N,0.8
1502717195.5,286046998.1,N,0.8
1502717215.4,286046998.1,N,0.8
1502717235.2,286047001.1,N,1.0
1502717255.1,286046998.5,N,1.0
1502717256.0,286046998.5,N,1.0
1502717275.8,286047000.7,N,1.1
1502717295.6,286047001.0,N,1.1
1502717315.5,286047001.2,N,1.2
1502717335.3,286047001.2,N,1.3
1502717355.2,286046998.7,N,1.2
1502717375.9,286047001.1,N,1.3
1502717395.7,286047001.2,N,1.3
1502717415.6,286046998.1,N,1.3
1502717435.4,286047001.0,N,1.3
1502717455.3,286046998.2,N,1.3
1502717475.1,286047001.2,N,1.3
1502717476.0,286047001.2,N,1.4
1502717495.8,286047001.1,N,1.4
1502717515.7,286047001.2,N,1.4
1502717535.5,286047000.8,N,1.4
1502717555.3,286047000.5,N,1.3
1502717575.2,286047000.2,N,1.3
1502717595.0,286047000.4,N,1.3
1502717595.9,286047000.4,N,1.3
1502717615.8,286047000.3,N,1.3
1502717635.6,286047000.3,N,1.2
1502717655.4,286047000.0,N,1.2
1502717675.3,286046999.7,N,1.2
1502717695.1,286046999.8,N,1.1
1502717715.9,286047000.2,N,1.1
1502717735.7,286047002.3,N,1.1
1502717755.5,286047000.0,N,1.0
1502717775.4,286046999.7,N,1.0
1502717795.2,286046999.8,N,1.0
1502717815.1,286047000.4,N,0.9
1502717816.0,286047000.4,N,0.9
1502717835.8,286047000.0,N,0.9
1502717855.6,286047000.0,N,0.9
1502717875.5,286047000.6,N,0.9
1502717895.3,286047000.5,N,0.8
1502717915.1,286046999.7,N,0.8
1502717935.9,286047002.7,Y,0.0
1502717955.7,286047002.7,P,1.2
1502717975.6,286047000.4,N,1.1
1502717995.4,286047000.0,N,1.1
1502718015.2,286046999.7,N,1.1
1502718035.1,286046999.9,N,1.0
1502718036.0,286046999.9,N,1.0
1502718055.8,286047000.5,N,0.9
1502718075.7,286047000.6,N,0.8
1502718095.5,286047000.6,N,0.8
1502718115.3,286047000.5,N,0.8
1502718135.2,286047000.1,N,0.7
1502718155.0,286047001.2,N,0.7
1502718155.9,286047001.2,N,0.7
1502718175.8,286047000.1,N,0.7
1502718195.6,286047000.6,N,0.7
1502718215.4,286046999.7,N,0.7
1502718235.3,286047002.6,Y,0.0
1502718255.1,286047000.8,P,0.2
1502718275.9,286047000.0,N,0.3
1502718295.7,286046999.7,N,0.4
1502718315.5,286047002.8,Y,0.0
1502718335.4,286047000.5,P,0.1
1502718355.2,286047000.2,N,0.1
1502718375.1,286682705.3,P,275268.4
1502718376.0,286046999.8,N,254282.1
1502718395.8,286047000.6,N,236913.3
1502718415.6,286046999.9,N,222450.5
1502718435.5,286047000.5,N,210239.7
1502718455.3,286047000.0,N,199782.9
1502718475.2,286046999.9,N,190711.6
1502718495.9,286047000.2,N,182752.4
1502718515.7,286046999.9,N,175699.6
1502718535.6,286047000.6,N,169395.9
1502718555.4,286047000.6,N,163719.1
1502718575.2,286047000.7,N,158572.7
1502718595.1,286047001.0,N,153879.7
1502718596.0,286047001.0,N,149577.6
1502718615.8,286047000.0,N,145615.5
1502718635.7,286047000.9,N,141950.9
1502718655.5,286047000.0,N,138548.7
1502718675.3,286046999.3,N,135379.0
1502718695.2,286046998.2,N,132416.7
1502718715.0,286047000.8,N,129640.1
1502718715.9,286047000.8,N,127030.6
1502718735.8,286047000.8,N,124572.2
1502718755.6,286046998.6,N,122251.0
1502718775.4,286047001.2,N,120054.5
1502718795.3,286047000.8,N,117972.2
1502718815.1,286046998.2,N,115994.3
1502718835.9,286046998.3,N,114112.6
1502718855.7,286047001.2,N,114112.6
1502718875.5,286046998.7,N,114112.6
1502718895.4,286046996.6,N,114112.6
1502718915.2,286046999.6,N,1.1
1502718935.0,286046996.8,N,1.2
1502718935.9,286046996.8,N,1.3
1502718955.8,286046996.7,N,1.4
1502718975.6,286046999.5,N,1.4
1502718995.5,286046996.6,N,1.5
1502719015.3,286046997.8,N,1.6
1502719035.1,286046996.6,N,1.6
1502719055.9,286046997.6,N,1.6
1502719075.7,286046997.9,N,1.6
1502719095.6,286046995.1,Y,0.0
1502719115.4,286046995.1,P,2.0
1502719135.2,286046995.5,N,1.8
1502719155.1,286046995.2,N,1.7
1502719156.0,286046995.2,N,1.6
1502719175.8,286046995.5,N,1.4
1502719195.7,286046995.0,Y,0.0
